一网星座-0570星 (ONEWEB-0570)

导读 | 豆包AI

ONEWEB-0570是英国OneWeb公司的低轨通信卫星,于2023年1月10日由SpaceX猎鹰9号火箭在卡纳维拉尔角发射升空,属于OneWeb第一代全球卫星互联网星座组网卫星。该卫星重约148公斤,由太阳能电池板供电,最终运行在1200公里轨道,可提供高速低延迟宽带通信服务,服务覆盖偏远地区、海事航空、应急通信等场景,助力OneWeb实现全球卫星互联网覆盖。

基本信息
目录编号:
55149
目录名称:
ONEWEB-0570
国际标识:
2023-004K
轨道中心:
EARTH
卫星名称:
一网星座-0570星
卫星全名:
一网星座-0570星 (ONEWEB-0570)
卫星状态:
在轨 (已飞行1180 天)
发射日期:
2023-01-10 UTC
国别 :
英国 (GB)
星等 :
--
轨道信息
数据来源 国际轨道数据 AOE轨道数据
星历时间 2026-04-04T02:26:44+0800
9小时前
查看轨道信息
2026-03-31T23:00:00+0800
3天前
查看轨道信息
半长轴 7567.874km 7567.874km
偏心率 0.0001444 0.0001545
轨道倾角 87.923° 87.923°
近地点辐角 65.563° 67.251°
升交点赤经 350.266° 350.890°
平近点角 294.565° 138.066°
近地点 1188.644km 1188.567km
远地点 1190.83km 1190.907km
周期 109.199分钟 109.199分钟
每日圈数 13.186878 13.186877
详细信息
平衡模式:
三轴稳定
覆盖范围:
全球
运营商:
一网卫星公司
运营商所在国:
英国
制造商(研发单位):
一网卫星公司
制造商所在国:
英国
使用方式:
暂无
卫星简介
OneWeb卫星网络由648颗重约125公斤的微型卫星组成,运行在1200公里的轨道上。 每颗卫星都能够提供至少每秒8千兆位的吞吐量,以使用其高吞吐量的Ku频段有效载荷为家庭和移动平台提供互联网接入。该卫星仍在工作。
2D轨道图
3D轨道图
轨道高度分析图
轨道倾角分析图
轨道综合分析图
查看轨道综合分析图